{"data":{"norad_id":64163,"intl_designator":"2025-112T","name":"STARLINK-34340","alt_names":[],"object_type":"PAYLOAD","status":"ACTIVE","operator":null,"country":"US","launch_date":"2025-05-27","launch_site_code":"AFWTR","launch_vehicle":null,"mission":null,"orbit_class":"UNKNOWN","rcs_meters":null,"size_class":null,"mass_kg":null,"dimensions":null,"purposes":["comms"],"wikipedia_slug":null,"has_3d_model":false,"image_url":null,"decayed_at":null,"tle_current":{"epoch":"2026-09-20T13:53:35.994912Z","epoch_age_seconds":133693,"freshness":"FRESH","line1":"1 64163U 25112T   26263.57888883  .00009668  00000+0  30139-3 0  9992","line2":"2 64163  97.2905 310.6990 0001386 104.9128 255.2268 15.33447382 72767","mean_motion":15.33447382,"eccentricity":0.0001386,"inclination_deg":97.2905,"raan_deg":310.699,"arg_perigee_deg":104.9128,"mean_anomaly_deg":255.2268,"bstar":0.00030139,"rev_number":7276,"period_min":93.906058786437,"perigee_km":464.58755424128,"apogee_km":466.48462042109,"semimajor_km":6843.6730873312,"source":"CELESTRAK","updated_at":"2026-09-21T09:00:35.240950Z"}}}